Location: Capel Gartheli
(52.1833°N, 4.0667°W)
Time: 03:27:50
(UTC+00:00)

NOSS 3-1 (A) - Pass Details

Date: 18 February 2020
Orbit: 761 x 1452 km, 63.4° (Epoch: 26 March)

Event Time Altitude Azimuth Distance (km) Brightness Sun altitude
Exits shadow 04:44:07 49° 263° (W) 1,599 4.1 -25.5°
Maximum altitude 04:45:17 52° 236° (SW) 1,561 4.1 -25.3°
Drops below altitude 10° 04:53:27 10° 164° (SSE) 3,476 6.4 -24.1°
Sets 04:56:35 0° 160° (SSE) 4,496 7.1 -23.6°
